Location: Bruneau Dunes Observatory
(42.9024°N, 115.6902°W)
Time: 03:31:29
(UTC-07:00)

Daily predictions for brighter satellites

Satellite Brightness Start Highest point End
(mag) Time Altitude Azimuth Time Altitude Azimuth Time Altitude Azimuth
SL-16 R/B 4.4 04:22:03 18° NE 04:22:03 18° NE 04:23:31 10° NE
USA 215 4.2 04:53:49 10° ENE 04:59:55 41° SE 05:03:49 21° S
CENTAUR R/B 3.3 05:14:52 40° N 05:14:52 40° N 05:19:56 10° NNE
Cosmos 2369 Rocket 3.8 05:10:40 19° N 05:13:38 30° NE 05:18:35 10° ESE
Lacrosse 5 3.1 05:14:07 31° SSE 05:15:35 37° SE 05:20:17 10° ENE
Cosmos 1603 4.3 05:11:08 14° S 05:15:56 53° ESE 05:21:27 10° NNE
COSMO-SKYMED 1 3.7 05:24:43 10° SE 05:28:48 42° ENE 05:30:31 28° NNE
Meteor 1-18 Rocket 4.2 05:29:57 72° WSW 05:29:57 72° WSW 05:35:42 10° S
Feng Yun 1-1 Rocket 4.1 05:25:23 10° NNE 05:31:01 86° WNW 05:36:29 10° SSW
Lacrosse 4 Rocket 4.3 05:35:18 10° NE 05:35:42 10° NE 05:36:05 10° NE
Meteor 1-20 Rocket 4.0 05:31:44 10° SSW 05:37:19 79° W 05:42:50 10° N
Lacrosse 5 rocket 3.9 05:42:30 12° N 05:42:30 12° N 05:43:15 10° NNE
NOAA 6 4.2 05:37:28 10° NNE 05:42:36 73° ESE 05:47:43 10° S
Tiangong 2 2.9 05:44:45 32° E 05:44:45 32° E 05:46:34 10° E
Cosmos 1300 Rocket 3.7 05:43:04 10° S 05:47:28 71° E 05:51:52 10° NNE
CRYOSAT 2 4.3 05:45:13 10° S 05:50:05 85° E 05:55:02 10° N
Cosmos 1633 3.4 05:46:56 10° S 05:50:28 50° E 05:54:00 10° NNE
Transit 2A Rocket 4.5 05:52:17 62° NNW 05:53:02 87° ENE 05:57:22 10° SSE
Nadezhda 3 Rocket 4.2 05:48:59 10° N 05:55:22 73° E 06:01:43 10° SSE
Cosmos 1943 Rocket 3.8 05:50:49 10° N 05:55:35 29° NE 06:00:21 10° ESE
SKYMED 3 4.5 05:54:28 10° SSE 05:58:47 89° ENE 06:00:55 30° NNW
SL-08 ROCKET BODY 4.4 05:55:28 10° SSW 06:01:14 51° WNW 06:06:59 10° N
SL-16 R/B 3.4 06:03:59 24° NNW 06:03:59 24° NNW 06:07:16 10° N
Cosmos 1602 3.6 06:01:21 10° S 06:05:18 88° W 06:09:18 10° N
USA 129 4.4 06:07:10 10° ESE 06:08:48 19° ENE 06:09:03 19° ENE
Cosmos 44 4.0 06:06:42 10° SSW 06:11:58 61° ESE 06:17:07 10° NE
Meteor 1-19 Rocket 4.2 06:07:38 10° N 06:13:31 86° W 06:19:17 10° S
Cosmos 2074 Rocket 4.3 06:08:56 10° SW 06:14:50 42° WNW 06:20:46 10° N
Cosmos 2056 Rocket 3.6 06:14:22 33° NW 06:16:13 48° WSW 06:21:07 10° S
SKYMED 2 3.6 06:12:35 10° S 06:16:51 58° W 06:19:09 26° NNW
Abrixas rocket 2.2 06:16:06 50° SW 06:16:52 80° SSE 06:20:14 10° ENE
SL-23 DEB 4.3 06:16:38 32° N 06:17:19 37° NNE 06:20:34 10° E
ADEOS II 4.2 06:13:27 10° NNW 06:13:47 11° NNW 06:13:47 11° NNW
Cosmos 2341 Rocket 4.0 06:14:16 10° S 06:20:33 84° E 06:26:50 10° N
Meteor 1-28 Rocket 3.2 06:17:03 10° SSE 06:20:50 85° ENE 06:24:18 12° N
Cosmos 1346 Rocket 4.2 06:22:47 22° SW 06:22:47 22° SW 06:24:43 10° SSW
Cosmos 2263 4.4 06:16:25 12° NNW 06:21:41 69° ENE 06:27:14 10° SSE
Meteor 2-13 Rocket 4.4 06:15:52 10° SSW 06:22:02 77° W 06:28:14 10° N
Meteor 1-11 Rocket 3.7 06:16:54 10° SSW 06:22:45 77° W 06:28:30 10° N
Ariane Rocket 2.9 06:24:33 10° N 06:29:37 78° WNW 06:34:40 10° SSW
Cosmos 1340 3.6 06:28:59 10° N 06:32:41 48° ENE 06:36:21 10° SSE
Okean 2 3.7 06:34:28 10° N 06:38:38 68° E 06:42:46 10° SSE
Meteor 1-23 Rocket 4.1 06:34:51 10° NNW 06:40:26 82° W 06:45:59 10° S
CSL-04 Rocket 3.6 06:36:18 10° NNE 06:41:52 78° WNW 06:47:21 10° SSW
SL-24 R/B 4.4 06:36:24 10° N 06:41:54 69° WNW 06:46:31 10° SSW
CZ-3 R/B 3.6 06:37:26 10° SW 06:42:47 16° SSW 06:45:47 10° SSE
CZ-2C R/B 3.6 06:38:04 10° NNE 06:43:03 47° E 06:47:55 10° S
USA 215 3.3 06:36:40 10° NE 06:43:06 63° NW 06:49:31 10° WSW
Cosmos 1025 Rocket 3.0 06:38:52 10° NNW 06:43:14 65° W 06:47:32 10° S
YAOGAN 1 4.0 06:41:55 10° NNE 06:46:02 41° E 06:50:08 10° S
CSL-04 Debris 4.1 06:41:01 10° NNE 06:46:30 83° WNW 06:51:58 10° SSW
Cosmos 2154 Rocket 4.2 06:41:56 10° SSW 06:47:51 46° WNW 06:53:49 10° N
Meteor 2-4 Rocket 3.8 06:45:27 10° NNW 06:50:51 57° W 06:56:23 10° S
IDEFIX/ARIANE 42P 3.4 06:45:58 10° NNE 06:51:04 53° E 06:56:09 10° S
CZ-4 R/B 1.5 06:49:58 10° NNE 06:53:56 75° ESE 06:57:48 10° S
Cosmos 44 Rocket 3.9 06:50:07 10° WSW 06:54:57 39° NW 06:59:44 10° NNE
Cosmos 1536 3.3 06:53:08 10° SW 06:56:49 36° WNW 07:00:33 10° N
Cosmos 2369 Rocket 2.6 06:52:29 10° NW 06:57:49 45° WSW 07:03:12 10° S
Lacrosse 5 2.2 06:53:37 10° WSW 06:58:31 45° NW 07:03:24 10° NE
Okean 1 Rocket 4.0 06:55:45 10° SW 06:59:23 25° WNW 07:03:00 10° NNW
Meteor 1-5 Rocket 4.0 06:56:20 10° SSW 07:01:41 74° W 07:06:59 10° N
Cosmos 1544 Rocket 3.5 06:57:56 10° S 07:02:17 87° W 07:06:43 10° N
Cosmos 1900 4.3 06:58:04 10° NW 07:02:55 69° WSW 07:07:49 10° SSE
Meteor 2-19 Rocket 4.4 06:58:08 10° S 07:04:15 86° W 07:10:23 10° N
COSMO-SKYMED 1 4.0 07:02:11 10° SW 07:05:09 18° W 07:07:44 12° NW
SJ-12 4.0 07:01:14 10° NNE 07:05:25 90° E 07:09:35 10° SSW
Cosmos 1452 Rocket 3.9 07:00:31 10° NNW 07:05:29 43° WSW 07:10:26 10° S
CENTAUR R/B 4.2 07:02:04 12° NW 07:05:47 18° NNW 07:10:33 10° NNE
Meteor 2-8 Rocket 4.5 07:00:48 10° NNW 07:06:54 66° W 07:12:59 10° S
ATLAS 5 CENTAUR R/B 4.4 07:04:07 10° N 07:06:57 14° NNE 07:09:53 10° NE
AQUARIUS 4.2 07:06:48 10° NNE 07:11:19 86° E 07:15:49 10° SSW
Lacrosse 4 Rocket 1.6 07:11:04 10° NNW 07:15:14 72° ENE 07:19:18 10° SE
SL-8 Rocket 4.1 07:12:49 10° SSW 07:18:57 58° W 07:25:06 10° N
Tiangong 2 1.7 07:16:52 10° W 07:19:56 49° SSW 07:22:58 10° ESE
IRS-1A Rocket 4.4 07:14:33 10° N 07:20:07 55° WNW 07:25:45 10° SW
Cosmos 1515 3.8 07:17:19 10° N 07:21:10 79° E 07:24:59 10° S
Lacrosse 5 rocket 3.6 07:19:35 10° NNW 07:22:00 14° NNE 07:24:28 10° NE
Cosmos 1943 3.8 07:19:04 10° WSW 07:24:07 34° NW 07:29:15 10° N
Cosmos 1892 Rocket 4.1 07:21:16 10° NNW 07:25:27 40° W 07:29:38 10° SSW
ATLAS 3B R/B 4.4 07:24:50 10° NNW 07:30:00 21° NNE 07:34:58 10° ENE
Cosmos 2366 rocket 4.1 07:24:43 10° SSW 07:30:57 64° W 07:37:17 10° N
NOSS 3-1 (C) 4.1 07:26:44 10° SSW 07:32:25 61° ESE 07:38:46 10° NE
